| time (UTC) | temp F | wind direction | speed knots | gust knots | rain 1hr in | rain 24hr in | rain mn in | humidity % | barometer mb |
| 20260507094518 | 51 | 159 | 0.9 | 2.6 | 0.00 | 0.00 | 0.00 | 89 | 1021.7 |
| 20260507093017 | 51 | 159 | 1.7 | 2.6 | 0.00 | 0.00 | 0.00 | 89 | 1021.7 |
| 20260507091520 | 51 | 159 | 0.9 | 4.3 | 0.00 | 0.00 | 0.00 | 89 | 1021.7 |
| 20260507090016 | 51 | 158 | 0.0 | 4.3 | 0.00 | 0.00 | 0.00 | 89 | 1021.7 |
| 20260507084519 | 51 | 157 | 0.9 | 4.3 | 0.00 | 0.00 | 0.00 | 89 | 1021.7 |
| 20260507083014 | 51 | 153 | 1.7 | 5.2 | 0.00 | 0.00 | 0.00 | 89 | 1021.7 |
| 20260507081515 | 52 | 174 | 1.7 | 6.1 | 0.00 | 0.00 | 0.00 | 88 | 1021.8 |
| 20260507080012 | 52 | 205 | 1.7 | 5.2 | 0.00 | 0.00 | 0.00 | 89 | 1021.7 |
| 20260507074509 | 51 | 227 | 0.9 | 5.2 | 0.00 | 0.00 | 0.00 | 89 | 1021.8 |
| 20260507073007 | 51 | 147 | 3.5 | 7.0 | 0.00 | 0.00 | 0.00 | 90 | 1021.8 |
| 20260507071510 | 51 | 208 | 2.6 | 7.0 | 0.00 | 0.00 | 0.00 | 91 | 1021.7 |
| 20260507070009 | 51 | 238 | 2.6 | 7.8 | 0.00 | 0.00 | 0.00 | 92 | 1021.8 |
| 20260507064505 | 51 | 238 | 2.6 | 6.1 | 0.00 | 0.00 | 0.00 | 92 | 1021.9 |
| 20260507063002 | 52 | 212 | 0.9 | 4.3 | 0.00 | 0.00 | 0.00 | 93 | 1021.8 |
| 20260507061503 | 52 | 230 | 1.7 | 4.3 | 0.00 | 0.00 | 0.00 | 92 | 1021.9 |
| 20260507060002 | 52 | 185 | 2.6 | 5.2 | 0.00 | 0.00 | 0.00 | 92 | 1021.8 |
| 20260507054500 | 52 | 202 | 1.7 | 7.8 | 0.00 | 0.00 | 0.00 | 91 | 1021.8 |
| 20260507053125 | 52 | 203 | 2.6 | 6.1 | 0.00 | 0.00 | 0.00 | 90 | 1021.8 |
| 20260507051559 | 53 | 252 | 1.7 | 6.1 | 0.00 | 0.00 | 0.00 | 89 | 1021.9 |
| 20260507050059 | 53 | 229 | 2.6 | 6.1 | 0.00 | 0.00 | 0.00 | 88 | 1021.9 |
| 20260507044622 | 53 | 244 | 2.6 | 10.4 | 0.00 | 0.00 | 0.00 | 87 | 1021.9 |
| 20260507043057 | 54 | 211 | 3.5 | 7.8 | 0.00 | 0.00 | 0.00 | 84 | 1021.8 |
| 20260507041556 | 54 | 182 | 2.6 | 6.1 | 0.00 | 0.00 | 0.00 | 83 | 1021.7 |
| 20260507034601 | 55 | 241 | 1.7 | 7.0 | 0.00 | 0.00 | 0.00 | 82 | 1021.5 |
| 20260507033107 | 55 | 228 | 1.7 | 4.3 | 0.00 | 0.00 | 0.00 | 82 | 1021.3 |
| 20260507031601 | 55 | 237 | 1.7 | 3.5 | 0.00 | 0.00 | 0.00 | 82 | 1021.3 |
| 20260507030107 | 55 | 230 | 1.7 | 7.0 | 0.00 | 0.00 | 0.00 | 81 | 1021.2 |
| 20260507024652 | 55 | 245 | 3.5 | 10.4 | 0.00 | 0.00 | 0.00 | 80 | 1021.1 |
| 20260507023051 | 56 | 252 | 0.9 | 8.7 | 0.00 | 0.00 | 0.00 | 80 | 1021.0 |
| 20260507021555 | 56 | 312 | 3.5 | 7.8 | 0.00 | 0.00 | 0.00 | 80 | 1020.9 |
| 20260507020058 | 56 | 229 | 5.2 | 10.4 | 0.00 | 0.00 | 0.00 | 79 | 1021.0 |
| 20260507014558 | 57 | 258 | 6.1 | 9.6 | 0.00 | 0.00 | 0.00 | 78 | 1020.9 |
| 20260507013058 | 57 | 230 | 2.6 | 8.7 | 0.00 | 0.00 | 0.00 | 79 | 1020.9 |
| 20260507011552 | 57 | 227 | 1.7 | 7.8 | 0.00 | 0.00 | 0.00 | 79 | 1020.9 |
| 20260507010048 | 57 | 226 | 4.3 | 8.7 | 0.00 | 0.00 | 0.00 | 78 | 1021.1 |
| 20260507004549 | 57 | 225 | 2.6 | 8.7 | 0.00 | 0.00 | 0.00 | 80 | 1021.1 |
| 20260507003048 | 57 | 273 | 1.7 | 10.4 | 0.00 | 0.00 | 0.00 | 80 | 1021.0 |
| 20260507001547 | 57 | 261 | 5.2 | 11.3 | 0.00 | 0.00 | 0.00 | 80 | 1021.0 |
| 20260507000046 | 57 | 269 | 5.2 | 9.6 | 0.00 | 0.00 | 0.00 | 79 | 1021.1 |
| 20260506234554 | 57 | 295 | 3.5 | 10.4 | 0.00 | 0.00 | 0.00 | 79 | 1021.1 |
| 20260506233051 | 58 | 255 | 6.1 | 12.2 | 0.00 | 0.00 | 0.00 | 78 | 1021.1 |
| 20260506231553 | 58 | 271 | 5.2 | 11.3 | 0.00 | 0.00 | 0.00 | 76 | 1021.1 |
| 20260506230044 | 58 | 263 | 5.2 | 10.4 | 0.00 | 0.00 | 0.00 | 77 | 1021.1 |
| 20260506224544 | 59 | 271 | 2.6 | 9.6 | 0.00 | 0.00 | 0.00 | 77 | 1021.2 |
| 20260506223043 | 59 | 263 | 7.0 | 13.0 | 0.00 | 0.00 | 0.00 | 77 | 1021.2 |
| 20260506221539 | 58 | 282 | 7.0 | 13.9 | 0.00 | 0.00 | 0.00 | 79 | 1021.4 |
| 20260506220036 | 57 | 271 | 4.3 | 12.2 | 0.00 | 0.00 | 0.00 | 80 | 1021.4 |
| 20260506214534 | 56 | 281 | 6.1 | 12.2 | 0.00 | 0.00 | 0.00 | 80 | 1021.5 |
| 20260506213037 | 56 | 253 | 3.5 | 8.7 | 0.00 | 0.00 | 0.00 | 81 | 1021.5 |
| 20260506211531 | 56 | 300 | 2.6 | 8.7 | 0.00 | 0.00 | 0.00 | 81 | 1021.6 |
| 20260506210034 | 56 | 273 | 4.3 | 10.4 | 0.00 | 0.00 | 0.00 | 80 | 1021.5 |
| 20260506204534 | 56 | 288 | 7.8 | 13.9 | 0.00 | 0.00 | 0.00 | 80 | 1021.5 |
| 20260506203037 | 56 | 265 | 4.3 | 10.4 | 0.00 | 0.00 | 0.00 | 80 | 1021.4 |
| 20260506201531 | 56 | 281 | 2.6 | 11.3 | 0.00 | 0.00 | 0.00 | 82 | 1021.3 |
| 20260506200025 | 56 | 267 | 4.3 | 7.8 | 0.00 | 0.00 | 0.00 | 83 | 1021.2 |
| 20260506194525 | 56 | 307 | 4.3 | 8.7 | 0.00 | 0.00 | 0.00 | 84 | 1021.2 |
| 20260506193023 | 55 | 274 | 1.7 | 6.1 | 0.00 | 0.00 | 0.00 | 84 | 1021.0 |
| 20260506191522 | 55 | 269 | 0.9 | 5.2 | 0.00 | 0.00 | 0.00 | 85 | 1021.0 |
| 20260506190020 | 54 | 242 | 0.9 | 5.2 | 0.00 | 0.00 | 0.00 | 85 | 1021.1 |
| 20260506184519 | 54 | 261 | 2.6 | 7.8 | 0.00 | 0.00 | 0.00 | 86 | 1021.2 |
| 20260506183018 | 54 | 275 | 4.3 | 8.7 | 0.00 | 0.00 | 0.00 | 86 | 1021.2 |
| 20260506181515 | 54 | 300 | 4.3 | 8.7 | 0.00 | 0.00 | 0.00 | 89 | 1020.8 |
| 20260506180017 | 54 | 288 | 3.5 | 7.8 | 0.00 | 0.00 | 0.00 | 89 | 1020.8 |
| 20260506174514 | 53 | 276 | 3.5 | 7.8 | 0.00 | 0.00 | 0.00 | 90 | 1020.9 |
| 20260506173018 | 53 | 284 | 5.2 | 10.4 | 0.00 | 0.00 | 0.00 | 91 | 1020.9 |
| 20260506171514 | 53 | 235 | 4.3 | 9.6 | 0.00 | 0.00 | 0.00 | 92 | 1021.0 |
| 20260506170013 | 53 | 244 | 1.7 | 7.8 | 0.00 | 0.00 | 0.00 | 93 | 1020.8 |
| 20260506164510 | 53 | 242 | 2.6 | 6.1 | 0.00 | 0.00 | 0.00 | 94 | 1020.8 |
| 20260506163011 | 53 | 279 | 0.9 | 4.3 | 0.00 | 0.00 | 0.00 | 95 | 1020.5 |
| 20260506161514 | 53 | 267 | 1.7 | 4.3 | 0.00 | 0.00 | 0.00 | 95 | 1020.3 |
| 20260506160009 | 52 | 290 | 0.9 | 2.6 | 0.00 | 0.00 | 0.00 | 95 | 1020.5 |
| 20260506154507 | 52 | 284 | 1.7 | 5.2 | 0.00 | 0.00 | 0.00 | 95 | 1020.8 |
| 20260506153005 | 52 | 287 | 1.7 | 5.2 | 0.00 | 0.00 | 0.00 | 95 | 1020.7 |
| 20260506151505 | 52 | 246 | 0.9 | 3.5 | 0.00 | 0.00 | 0.00 | 94 | 1020.3 |
| 20260506150005 | 52 | 265 | 1.7 | 7.0 | 0.00 | 0.00 | 0.00 | 94 | 1020.5 |
| 20260506144504 | 52 | 283 | 4.3 | 8.7 | 0.00 | 0.00 | 0.00 | 93 | 1020.6 |
| 20260506143059 | 52 | 288 | 3.5 | 6.1 | 0.00 | 0.00 | 0.00 | 93 | 1020.2 |
| 20260506141558 | 52 | 277 | 1.7 | 5.2 | 0.00 | 0.00 | 0.00 | 93 | 1020.1 |
| 20260506140058 | 53 | 263 | 1.7 | 6.1 | 0.00 | 0.00 | 0.00 | 92 | 1020.2 |
| 20260506134555 | 53 | 240 | 0.9 | 7.0 | 0.00 | 0.00 | 0.00 | 92 | 1019.9 |
| 20260506133054 | 53 | 261 | 3.5 | 7.8 | 0.00 | 0.00 | 0.00 | 91 | 1019.9 |
| 20260506131600 | 53 | 225 | 0.0 | 1.7 | 0.00 | 0.00 | 0.00 | 91 | 1019.7 |
| 20260506130103 | 53 | 225 | 0.0 | 1.7 | 0.00 | 0.00 | 0.00 | 91 | 1019.6 |
| 20260506124557 | 53 | 225 | 0.0 | 4.3 | 0.00 | 0.00 | 0.00 | 91 | 1019.5 |
| 20260506123048 | 53 | 233 | 0.9 | 4.3 | 0.00 | 0.00 | 0.00 | 91 | 1019.4 |
| 20260506121548 | 53 | 226 | 0.0 | 0.0 | 0.00 | 0.00 | 0.00 | 91 | 1019.3 |
| 20260506120046 | 53 | 226 | 0.0 | 1.7 | 0.00 | 0.00 | 0.00 | 91 | 1019.4 |
| 20260506114546 | 53 | 226 | 0.9 | 3.5 | 0.00 | 0.00 | 0.00 | 91 | 1019.0 |
| 20260506113052 | 53 | 229 | 0.0 | 1.7 | 0.00 | 0.00 | 0.00 | 90 | 1019.2 |
| 20260506111544 | 53 | 229 | 2.6 | 4.3 | 0.00 | 0.00 | 0.00 | 90 | 1019.3 |
| 20260506110051 | 53 | 226 | 1.7 | 6.1 | 0.00 | 0.00 | 0.00 | 89 | 1019.0 |
| 20260506104548 | 53 | 209 | 2.6 | 5.2 | 0.00 | 0.00 | 0.00 | 89 | 1019.0 |
| 20260506103047 | 53 | 235 | 1.7 | 4.3 | 0.00 | 0.00 | 0.00 | 88 | 1018.9 |
| 20260506101549 | 53 | 235 | 1.7 | 3.5 | 0.00 | 0.00 | 0.00 | 88 | 1018.7 |
| 20260506100135 | 53 | 231 | 1.7 | 6.1 | 0.00 | 0.00 | 0.00 | 88 | 1018.5 |